Location: Garmisch-Partenkirchen
(47.4984°N, 11.0914°E)
Time: 14:26:23
(UTC+01:00)

ISS - Visible Passes

Search period start: 11 February 2026 00:00
Search period end: 21 February 2026 00:00
Orbit: 413 x 429 km, 51.6° (Epoch: 10 February)

Date Brightness Start Highest point End Pass type
(mag) Time Alt. Az. Time Alt. Az. Time Alt. Az.
12 Feb -1.1 06:20:09 10° S 06:22:36 19° SE 06:25:05 10° E visible
13 Feb -0.8 05:34:15 10° SSE 05:35:46 13° SE 05:37:18 10° ESE visible
14 Feb -2.7 06:21:52 10° SW 06:25:04 45° SSE 06:28:18 10° ENE visible
15 Feb -2.1 05:36:20 18° SSW 05:38:06 30° SE 05:41:04 10° E visible
16 Feb -1.4 04:51:30 20° SE 04:51:30 20° SE 04:53:40 10° E visible
16 Feb -3.8 06:24:31 11° WSW 06:27:39 83° NNW 06:31:01 10° ENE visible
17 Feb -3.6 05:39:31 40° SW 05:40:32 70° SSE 05:43:52 10° ENE visible
18 Feb -2.2 04:54:24 35° E 04:54:24 35° E 04:56:41 10° ENE visible
18 Feb -3.3 06:27:24 12° W 06:30:18 49° NNW 06:33:34 10° ENE visible
19 Feb -0.2 04:09:12 11° E 04:09:12 11° E 04:09:23 10° E visible
19 Feb -3.7 05:42:11 42° WNW 05:43:04 61° NNW 05:46:24 10° ENE visible
20 Feb -2.6 04:56:54 41° ENE 04:56:54 41° ENE 04:59:13 10° ENE visible
20 Feb -2.9 06:29:52 11° WNW 06:32:58 39° N 06:36:08 10° ENE visible
